[[{"header":{"parameterUnit":"m.s-1","parameterCategory":1,"la1":30.2991,"la2":30.254,"lo1":-89.0895,"lo2":-89.0444,"dy":0.0017,"dx":0.0017,"nx":28,"ny":28,"refTime":"2023-10-31T03:00:00:Z","depth":0,"parameterNumber":2,"parameterNumberName":"U-component_of_WINDS"},"data":[0,0,0,0,0,0,0,0,0,0,0,0,0,0,0,0,0,0,0,0,0,0,0,0,0,0,0,0,0,0,0,0,0,0,0,0,0,0,0,0,0,0,0,0,0,0,0,0,0,0,0,0,0,0,0,0,0,0,0.2485,0.2485,0,0.2439,0.2438,0.2438,0.2438,0.2438,0.2439,0.244,0.2391,0.2389,0.2388,0,0,0,0,0,0,0,0,0,0,0,0,0,0.2575,0.2573,0.2485,0.2485,0.2484,0.2439,0.2438,0.2437,0.2438,0.2438,0.2439,0.244,0.2392,0.239,0.2387,0,0,0,0,0,0,0,0,0,0,0,0,0,0.2533,0.2572,0.2485,0.2479,0.2478,0.2439,0.2438,0.2437,0.2437,0.2438,0.2439,0.244,0.2392,0.239,0.2387,0.2352,0,0,0.2379,0.2377,0,0,0,0,0,0,0,0,0.2535,0.2529,0.248,0.2479,0.2478,0.2445,0.2452,0.2408,0.2437,0.2453,0.244,0.2441,0.2408,0.2404,0.2393,0.2349,0.2347,0.2378,0.2377,0.2375,0.2375,0,0,0,0,0,0,0,0.2538,0.2531,0.2467,0.248,0.2478,0.2478,0.2473,0.2444,0.2426,0.2451,0.2451,0.2446,0.2408,0.2396,0.2392,0.2346,0.2378,0.2376,0.2374,0.2373,0.2272,0.2271,0,0,0,0,0,0,0.2542,0.2534,0.2468,0.2465,0.2509,0.2476,0.247,0.2455,0.2426,0.2423,0.2445,0.2446,0.24,0.2396,0.2391,0.2347,0.2375,0.2373,0.2371,0.2273,0.2272,0.227,0,0,0,0,0,0,0.2544,0.2536,0.247,0.25,0.2491,0.2473,0.2456,0.2453,0.2441,0.2421,0.2418,0.2436,0.2401,0.2395,0.2361,0.2346,0.2372,0.2369,0.2274,0.2272,0.2271,0.226,0,0,0,0,0,0,0.2547,0.2537,0.2523,0.2499,0.249,0.2441,0.2455,0.2452,0.2437,0.2438,0.2412,0.2409,0.2401,0.2366,0.2359,0.2342,0.2367,0.2275,0.2273,0.2271,0.2262,0.2259,0.2256,0,0,0,0,0,0.255,0.2522,0.2522,0.2514,0.2472,0.2441,0.2435,0.2427,0.2436,0.2421,0.2409,0.241,0.2349,0.2362,0.2354,0.2337,0.2276,0.2274,0.2272,0.2263,0.2259,0.2256,0,0,0,0,0,0,0.2544,0.2518,0.2519,0.2482,0.2464,0.2441,0.2422,0.2422,0.2401,0.2402,0.2393,0.2387,0.2354,0.2342,0.2358,0.2302,0.2314,0.231,0.231,0.2306,0.2303,0.2306,0.2365,0,0,0,0,0,0.2538,0.2515,0.2494,0.2464,0.2454,0.244,0.2426,0.2422,0.2402,0.2394,0.2379,0.2359,0.2336,0.2321,0.2298,0.2261,0.2256,0.2245,0.2242,0.224,0.2236,0.2216,0.2211,0.2263,0.2263,0.2263,0,0,0.2526,0.2509,0.2495,0.2462,0.2447,0.2423,0.2433,0.2408,0.239,0.239,0.2357,0.2346,0.2324,0.2289,0.2273,0.2278,0.2221,0.2237,0.2235,0.2232,0.2213,0.2208,0.2204,0.2261,0.2262,0.2262,0,0,0.2492,0.2477,0.245,0.2435,0.2413,0.2404,0.2398,0.2375,0.2367,0.2335,0.2335,0.2314,0.2274,0.2258,0.2245,0.2207,0.2207,0.22,0.2183,0.2163,0.2159,0.2156,0.2142,0.2137,0.2196,0.2196,0.2196,0,0.2479,0.2443,0.2436,0.241,0.2396,0.2396,0.2369,0.2355,0.2326,0.2316,0.2323,0.2273,0.2258,0.222,0.221,0.22,0.2192,0.2202,0.2161,0.2157,0.2153,0.214,0.2135,0.2196,0.2196,0.2196,0.2196,0,0.2429,0.2405,0.2386,0.2358,0.2342,0.2316,0.2305,0.2289,0.2287,0.2277,0.2245,0.2227,0.2201,0.2192,0.2189,0.2153,0.2158,0.2163,0.2174,0.2148,0.2135,0.213,0.2194,0.2195,0.2195,0.2195,0,0,0.2388,0.2358,0.2351,0.2339,0.2315,0.2296,0.227,0.2245,0.2232,0.2213,0.2191,0.2158,0.2163,0.2148,0.2143,0.2126,0.2097,0.2134,0.2133,0.2127,0.2057,0.2053,0.2047,0.2098,0.2097,0.2096,0.2059,0,0.2351,0.2305,0.2298,0.2257,0.2235,0.2235,0.2213,0.2196,0.2187,0.2166,0.2156,0.2133,0.2141,0.2132,0.2116,0.2104,0.2083,0.2107,0.2077,0.2076,0.2082,0.2041,0.2035,0.2001,0.2054,0.2053,0.2053,0,0.23,0.228,0.2237,0.2217,0.2208,0.2188,0.2165,0.2145,0.2126,0.2121,0.2105,0.2103,0.2077,0.2091,0.2055,0.2071,0.2059,0.2052,0.2051,0.2046,0.2062,0.2035,0.199,0.1984,0.2045,0.2045,0.2046,0,0.2274,0.2236,0.2206,0.2196,0.2172,0.2158,0.2147,0.2129,0.2115,0.2095,0.2086,0.2063,0.2051,0.2034,0.2026,0.2037,0.199,0.2003,0.1985,0.1985,0.1974,0.1974,0.1925,0.1967,0.1968,0.1968,0.1968,0,0.2232,0.2206,0.2194,0.2175,0.2146,0.2139,0.211,0.21,0.2085,0.2064,0.2064,0.2045,0.2036,0.2015,0.2009,0.198,0.1975,0.197,0.1968,0.1969,0.197,0.196,0.1962,0.1966,0.1967,0.1967,0.1967,0,0.2197,0.2188,0.2155,0.2135,0.213,0.2109,0.2092,0.2074,0.2066,0.2041,0.2034,0.2021,0.1997,0.1988,0.1959,0.1955,0.1922,0.1922,0.1928,0.1927,0.1909,0.191,0.1851,0.1843,0.1891,0.1891,0.189,0,0.217,0.215,0.2129,0.2115,0.2104,0.2082,0.2068,0.2061,0.2047,0.2025,0.2009,0.1986,0.1966,0.1928,0.1916,0.1894,0.1894,0.1875,0.1891,0.1893,0.1893,0.1894,0.1892,0.1872,0.1871,0.1871,0.1871,0,0.2124,0.2121,0.21,0.2078,0.2062,0.2044,0.2027,0.2016,0.2007,0.199,0.1966,0.1951,0.1922,0.1899,0.1876,0.1866,0.1866,0.1866,0.186,0.1861,0.1864,0.1862,0.1919,0.1867,0.1867,0.1868,0.1868,0.1868,0.2092,0.2074,0.2057,0.2034,0.2021,0.2005,0.1987,0.1978,0.1957,0.1933,0.1931,0.1905,0.1888,0.1858,0.1847,0.1827,0.1832,0.1824,0.1821,0.1819,0.1818,0.1869,0.1823,0.1823,0.1823,0.1823,0.1823,0,0.2045,0.2034,0.2014,0.199,0.1972,0.1976,0.1958,0.1943,0.192,0.1904,0.1885,0.1858,0.1836,0.1823,0.1801,0.1787,0.1787,0.1781,0.1782,0.1779,0.1815,0.1821,0.1782,0.1782,0.1782,0.1782,0.1782,0.1782,0.2018,0.1989,0.1984,0.1948,0.1937,0.1912,0.1901,0.1887,0.1875,0.1844,0.1826,0.1818,0.1803,0.178,0.176,0.1757,0.1749,0.1743,0.174,0.1773,0.1777,0.1781,0.1787,0.1741,0.1741,0.1706,0.1706,0.1706]},{"header":{"parameterUnit":"m.s-1","parameterCategory":1,"la1":30.2991,"la2":30.254,"lo1":-89.0895,"lo2":-89.0444,"dy":0.0017,"dx":0.0017,"nx":28,"ny":28,"refTime":"2023-10-31T03:00:00:Z","depth":0,"parameterNumber":3,"parameterNumberName":"V-component_of_WINDS"},"data":[0,0,0,0,0,0,0,0,0,0,0,0,0,0,0,0,0,0,0,0,0,0,0,0,0,0,0,0,0,0,0,0,0,0,0,0,0,0,0,0,0,0,0,0,0,0,0,0,0,0,0,0,0,0,0,0,0,0,-8.7629,-8.7631,0,-8.7765,-8.7766,-8.7768,-8.7696,-8.7693,-8.7689,-8.7686,-8.7817,-8.7823,-8.783,0,0,0,0,0,0,0,0,0,0,0,0,0,-8.7302,-8.7309,-8.7629,-8.7631,-8.7633,-8.7765,-8.7766,-8.7768,-8.7697,-8.7693,-8.7688,-8.7684,-8.7814,-8.7822,-8.7831,0,0,0,0,0,0,0,0,0,0,0,0,0,-8.7441,-8.7311,-8.7629,-8.7613,-8.7613,-8.7764,-8.7767,-8.7769,-8.7698,-8.7692,-8.7687,-8.7682,-8.7812,-8.7822,-8.7832,-8.8004,0,0,-8.7863,-8.7868,0,0,0,0,0,0,0,0,-8.7434,-8.7453,-8.7614,-8.7615,-8.7615,-8.7708,-8.7699,-8.7847,-8.7699,-8.7666,-8.7686,-8.7679,-8.7784,-8.7797,-8.7834,-8.801,-8.8015,-8.7864,-8.787,-8.7875,-8.7878,0,0,0,0,0,0,0,-8.7424,-8.7447,-8.7683,-8.7616,-8.7617,-8.7597,-8.7611,-8.7727,-8.7753,-8.7668,-8.7663,-8.7681,-8.7784,-8.7824,-8.7836,-8.8017,-8.7864,-8.7873,-8.7879,-8.7883,-8.8342,-8.8347,0,0,0,0,0,0,-8.7416,-8.744,-8.7678,-8.7687,-8.7509,-8.7607,-8.7623,-8.7684,-8.7752,-8.7757,-8.7685,-8.7677,-8.7809,-8.7824,-8.784,-8.8047,-8.7875,-8.7884,-8.789,-8.8336,-8.8343,-8.8349,0,0,0,0,0,0,-8.741,-8.7438,-8.7673,-8.7562,-8.759,-8.7619,-8.7688,-8.7689,-8.7729,-8.7765,-8.7769,-8.7722,-8.7805,-8.7826,-8.7964,-8.805,-8.7889,-8.7898,-8.8329,-8.8338,-8.8346,-8.846,0,0,0,0,0,0,-8.74,-8.7436,-8.7503,-8.7564,-8.7597,-8.7797,-8.7693,-8.7696,-8.7748,-8.7739,-8.7801,-8.7805,-8.7803,-8.7949,-8.7975,-8.8061,-8.7906,-8.8321,-8.8333,-8.8343,-8.8449,-8.8472,-8.8492,0,0,0,0,0,-8.7389,-8.7528,-8.7507,-8.7536,-8.7682,-8.7802,-8.782,-8.7816,-8.7756,-8.7822,-8.7845,-8.7804,-8.8037,-8.7964,-8.7992,-8.8083,-8.8315,-8.8329,-8.8342,-8.8439,-8.8467,-8.8491,0,0,0,0,0,0,-8.7474,-8.7536,-8.7513,-8.7677,-8.7735,-8.779,-8.7874,-8.7846,-8.7921,-8.7908,-8.7898,-8.7913,-8.8057,-8.8083,-8.8001,-8.8253,-8.8166,-8.8186,-8.823,-8.8258,-8.8279,-8.8269,-8.7915,0,0,0,0,0,-8.7512,-8.7607,-8.7655,-8.7794,-8.7825,-8.7845,-8.7897,-8.789,-8.7948,-8.7972,-8.8004,-8.8061,-8.8147,-8.8204,-8.8285,-8.8453,-8.8464,-8.8529,-8.855,-8.8568,-8.8585,-8.8675,-8.8705,-8.8394,-8.8394,-8.8393,0,0,-8.7591,-8.7636,-8.7696,-8.7813,-8.7857,-8.7954,-8.7866,-8.7971,-8.8042,-8.7987,-8.812,-8.8147,-8.8209,-8.8363,-8.8432,-8.839,-8.8673,-8.8585,-8.8599,-8.8606,-8.8692,-8.8722,-8.8748,-8.8403,-8.8401,-8.84,0,0,-8.7784,-8.7829,-8.795,-8.7997,-8.8067,-8.8079,-8.8108,-8.8168,-8.8184,-8.8319,-8.8279,-8.8362,-8.8511,-8.8557,-8.86,-8.8813,-8.8777,-8.8839,-8.8951,-8.904,-8.9064,-8.9086,-8.9161,-8.9189,-8.8856,-8.8857,-8.8857,0,-8.7872,-8.8019,-8.8015,-8.8125,-8.8177,-8.8135,-8.8257,-8.8301,-8.8393,-8.8428,-8.838,-8.8567,-8.8605,-8.877,-8.8822,-8.8859,-8.889,-8.8832,-8.9061,-8.9083,-8.9103,-8.9175,-8.9204,-8.8864,-8.8863,-8.8862,-8.8861,0,-8.8124,-8.8226,-8.8316,-8.8409,-8.8471,-8.8586,-8.8598,-8.8661,-8.8648,-8.8665,-8.8802,-8.8848,-8.8938,-8.8976,-8.8963,-8.9139,-8.9111,-8.9063,-8.8975,-8.914,-8.9207,-8.9235,-8.8874,-8.8871,-8.8869,-8.8867,0,0,-8.8373,-8.8464,-8.8497,-8.8539,-8.8613,-8.8691,-8.8804,-8.8895,-8.8949,-8.9013,-8.9107,-8.9234,-8.9191,-8.924,-8.9232,-8.931,-8.9475,-8.9251,-8.9253,-8.9291,-8.9671,-8.9707,-8.9739,-8.9453,-8.9458,-8.9462,-8.9666,0,-8.8571,-8.8772,-8.8773,-8.8957,-8.9051,-8.9012,-8.911,-8.9166,-8.9185,-8.9265,-8.9285,-8.9376,-8.9311,-8.9341,-8.9416,-8.9439,-8.9551,-8.9425,-8.9537,-8.9542,-8.9523,-8.9775,-8.9813,-9.0003,-8.9692,-8.9697,-8.97,0,-8.8829,-8.8906,-8.91,-8.9162,-8.9201,-8.929,-8.9374,-8.9452,-8.9513,-8.9521,-8.9578,-8.9558,-8.9671,-8.9581,-8.9736,-8.965,-8.9696,-8.9714,-8.9722,-8.9731,-8.963,-8.979,-9.0064,-9.0092,-8.9742,-8.9738,-8.9735,0,-8.8991,-8.9142,-8.9279,-8.9315,-8.9391,-8.9454,-8.9488,-8.9544,-8.9599,-8.9671,-8.9707,-8.979,-8.9836,-8.99,-8.9903,-8.9838,-9.0059,-8.997,-9.0068,-9.0068,-9.0116,-9.0112,-9.04,-9.0147,-9.0146,-9.0146,-9.0145,0,-8.9212,-8.9332,-8.9353,-8.9436,-8.957,-8.9569,-8.97,-8.9728,-8.9779,-8.9865,-8.9836,-8.9918,-8.9917,-9.0,-9.0003,-9.013,-9.0151,-9.0159,-9.0158,-9.0162,-9.0161,-9.0191,-9.0178,-9.0153,-9.0151,-9.015,-9.0149,0,-8.9415,-8.9434,-8.958,-8.964,-8.9658,-8.9754,-8.9804,-8.9883,-8.99,-9.0011,-9.0036,-9.0062,-9.0158,-9.0168,-9.0279,-9.0281,-9.0435,-9.042,-9.0415,-9.0413,-9.051,-9.0501,-9.0826,-9.0869,-9.0589,-9.0591,-9.0594,0,-8.9554,-8.9647,-8.9719,-8.9776,-8.9815,-8.9907,-8.9964,-8.9967,-9.0027,-9.0104,-9.0174,-9.0267,-9.0342,-9.0497,-9.0524,-9.0608,-9.0595,-9.0703,-9.0607,-9.0608,-9.0596,-9.0591,-9.0599,-9.0721,-9.0725,-9.0727,-9.0729,0,-8.98,-8.9806,-8.989,-8.9979,-9.0049,-9.0118,-9.0182,-9.0231,-9.0241,-9.0309,-9.0409,-9.0468,-9.0582,-9.0675,-9.0759,-9.079,-9.0762,-9.076,-9.0787,-9.0791,-9.0784,-9.0789,-9.0466,-9.0752,-9.0749,-9.0748,-9.0747,-9.0746,-8.9976,-9.0056,-9.012,-9.0216,-9.0265,-9.0327,-9.0405,-9.0433,-9.0517,-9.0612,-9.0608,-9.0718,-9.0776,-9.0886,-9.0924,-9.1008,-9.0971,-9.1011,-9.1021,-9.103,-9.104,-9.0772,-9.1023,-9.1022,-9.1022,-9.1021,-9.1021,0,-9.022,-9.026,-9.0348,-9.0441,-9.0516,-9.0486,-9.0556,-9.062,-9.0718,-9.0776,-9.0852,-9.0966,-9.1056,-9.1092,-9.118,-9.124,-9.1229,-9.1263,-9.1258,-9.1266,-9.1068,-9.1036,-9.1271,-9.127,-9.127,-9.127,-9.127,-9.127,-9.0356,-9.0491,-9.0504,-9.0663,-9.0701,-9.0811,-9.0853,-9.0909,-9.0956,-9.1086,-9.1163,-9.1186,-9.1235,-9.1327,-9.1408,-9.1415,-9.1449,-9.1489,-9.1491,-9.1305,-9.128,-9.1256,-9.1225,-9.1496,-9.1496,-9.1681,-9.1683,-9.1684]}]]